FW6684 Weather Reports


time (UTC)temp
C
wind
direction
speed
KPH
gust
KPH
rain 1hr
cm
rain 24hr
cm
rain mn
cm
humidity
%
barometer
mb
20260507164043 15 0 0.0 0.0 0.00 0.00 0.00 52 1017.6
20260507163544 15 0 0.0 0.0 0.00 0.00 0.00 53 1017.4
20260507163049 15 0 0.0 0.0 0.00 0.00 0.00 52 1017.4
20260507162544 15 0 0.0 0.0 0.00 0.00 0.00 52 1017.5
20260507162043 15 0 0.0 0.0 0.00 0.00 0.00 54 1017.4
20260507161553 15 0 0.0 0.0 0.00 0.00 0.00 52 1017.5
20260507161043 15 0 0.0 0.0 0.00 0.00 0.00 52 1017.5
20260507160543 15 0 0.0 0.0 0.00 0.00 0.00 52 1017.6
20260507160052 15 0 0.0 0.0 0.00 0.00 0.00 53 1017.5
20260507155543 15 0 0.0 0.0 0.00 0.00 0.00 52 1017.5
20260507155043 15 0 0.0 0.0 0.00 0.00 0.00 51 1017.5
20260507154554 15 0 0.0 0.0 0.00 0.00 0.00 51 1017.5
20260507154044 15 0 0.0 0.0 0.00 0.00 0.00 52 1017.5
20260507153543 15 0 0.0 0.0 0.00 0.00 0.00 51 1017.6
20260507153051 15 0 0.0 0.0 0.00 0.00 0.00 50 1017.5
20260507152544 15 0 0.0 0.0 0.00 0.00 0.00 49 1017.6
20260507152043 16 0 0.0 0.0 0.00 0.00 0.00 49 1017.6
20260507151547 16 0 0.0 0.0 0.00 0.00 0.00 48 1017.6
20260507151042 16 0 0.0 0.0 0.00 0.00 0.00 48 1017.6
20260507150543 16 0 0.0 0.0 0.00 0.00 0.00 44 1017.7
20260507150050 16 0 0.0 0.0 0.00 0.00 0.00 49 1017.7
20260507145543 16 0 0.0 0.0 0.00 0.00 0.00 48 1017.7
20260507145042 16 0 0.0 0.0 0.00 0.00 0.00 48 1017.7
20260507144553 16 0 0.0 0.0 0.00 0.00 0.00 46 1017.7
20260507144043 16 0 0.0 0.0 0.00 0.00 0.00 45 1017.8
20260507143543 16 0 0.0 0.0 0.00 0.00 0.00 46 1017.8
20260507143103 16 0 0.0 0.0 0.00 0.00 0.00 46 1017.8
20260507142543 16 0 0.0 0.0 0.00 0.00 0.00 46 1017.9
20260507142043 16 0 0.0 0.0 0.00 0.00 0.00 45 1017.8
20260507141555 16 0 0.0 0.0 0.00 0.00 0.00 44 1018.0
20260507141043 16 0 0.0 0.0 0.00 0.00 0.00 46 1018.1
20260507140543 16 0 0.0 0.0 0.00 0.00 0.00 46 1018.0
20260507140048 16 0 0.0 0.0 0.00 0.00 0.00 46 1018.1
20260507135543 15 0 0.0 0.0 0.00 0.00 0.00 46 1018.1
20260507135043 15 0 0.0 0.0 0.00 0.00 0.00 48 1018.0
20260507134556 15 0 0.0 0.0 0.00 0.00 0.00 48 1018.1
20260507134042 15 0 0.0 0.0 0.00 0.00 0.00 48 1018.1
20260507133543 14 0 0.0 0.0 0.00 0.00 0.00 49 1018.2
20260507133056 14 0 0.0 0.0 0.00 0.00 0.00 51 1018.2
20260507132542 14 0 0.0 0.0 0.00 0.00 0.00 51 1018.2
20260507132042 14 0 0.0 0.0 0.00 0.00 0.00 53 1018.2
20260507131602 14 0 0.0 0.0 0.00 0.00 0.00 53 1018.3
20260507131042 14 0 0.0 0.0 0.00 0.00 0.00 52 1018.2
20260507130547 14 0 0.0 0.0 0.00 0.00 0.00 49 1018.2
20260507130057 14 0 0.0 0.0 0.00 0.00 0.00 51 1018.3
20260507125543 14 0 0.0 0.0 0.00 0.00 0.00 49 1018.3
20260507125043 15 0 0.0 0.0 0.00 0.00 0.00 48 1018.3
20260507124557 15 0 0.0 0.0 0.00 0.00 0.00 47 1018.3
20260507124047 15 0 0.0 0.0 0.00 0.00 0.00 47 1018.3
20260507123543 15 0 0.0 0.0 0.00 0.00 0.00 48 1018.2
20260507123049 15 0 0.0 0.0 0.00 0.00 0.00 48 1018.3
20260507122547 15 0 0.0 0.0 0.00 0.00 0.00 49 1018.3
20260507122045 15 0 0.0 0.0 0.00 0.00 0.00 49 1018.3
20260507121551 15 0 0.0 0.0 0.00 0.00 0.00 49 1018.4
20260507121047 14 0 0.0 0.0 0.00 0.00 0.00 52 1018.6
20260507120542 14 0 0.0 0.0 0.00 0.00 0.00 51 1018.5
20260507120052 14 0 0.0 0.0 0.00 0.00 0.00 49 1018.6
20260507115543 15 0 0.0 0.0 0.00 0.00 0.00 50 1018.7
20260507115042 15 0 0.0 0.0 0.00 0.00 0.00 48 1018.6
20260507114549 15 0 0.0 0.0 0.00 0.00 0.00 54 1018.6
20260507114045 15 0 0.0 0.0 0.00 0.00 0.00 50 1018.5
20260507113543 15 0 0.0 0.0 0.00 0.00 0.00 50 1018.6
20260507113052 15 0 0.0 0.0 0.00 0.00 0.00 51 1018.6
20260507112544 15 0 0.0 0.0 0.00 0.00 0.00 53 1018.7
20260507112042 15 0 0.0 0.0 0.00 0.00 0.00 54 1018.6
20260507111550 14 0 0.0 0.0 0.00 0.00 0.00 56 1018.7
20260507111045 13 0 0.0 0.0 0.00 0.00 0.00 56 1018.8
20260507110543 13 0 0.0 0.0 0.00 0.00 0.00 63 1018.6
20260507105542 13 0 0.0 0.0 0.00 0.00 0.00 60 1018.8
20260507105043 13 0 0.0 0.0 0.00 0.00 0.00 61 1018.7
20260507104547 12 0 0.0 0.0 0.00 0.00 0.00 60 1018.8
20260507104043 12 0 0.0 0.0 0.00 0.00 0.00 60 1018.8
20260507103543 13 0 0.0 0.0 0.00 0.00 0.00 58 1018.7
20260507103054 13 0 0.0 0.0 0.00 0.00 0.00 58 1018.8
20260507102543 13 0 0.0 0.0 0.00 0.00 0.00 58 1018.9
20260507102043 13 0 0.0 0.0 0.00 0.00 0.00 59 1018.9
20260507101549 13 0 0.0 0.0 0.00 0.00 0.00 61 1018.9
20260507101042 12 0 0.0 0.0 0.00 0.00 0.00 61 1018.9
20260507100544 12 0 0.0 0.0 0.00 0.00 0.00 59 1018.9
20260507100107 12 0 0.0 0.0 0.00 0.00 0.00 62 1018.9
20260507095547 12 0 0.0 0.0 0.00 0.00 0.00 63 1018.8
20260507095044 12 0 0.0 0.0 0.00 0.00 0.00 63 1019.0
20260507094607 12 0 0.0 0.0 0.00 0.00 0.00 69 1018.8
20260507094044 12 0 0.0 0.0 0.00 0.00 0.00 68 1018.9
20260507093544 12 0 0.0 0.0 0.00 0.00 0.00 71 1018.8
20260507093058 12 0 0.0 0.0 0.00 0.00 0.00 70 1018.9
20260507092544 12 0 0.0 0.0 0.00 0.00 0.00 72 1018.9
20260507092043 12 0 0.0 0.0 0.00 0.00 0.00 72 1018.8
20260507091628 12 0 0.0 0.0 0.00 0.00 0.00 71 1019.0
20260507091044 12 0 0.0 0.0 0.00 0.00 0.00 72 1019.0
20260507090543 12 0 0.0 0.0 0.00 0.00 0.00 72 1019.0
20260507090105 12 0 0.0 0.0 0.00 0.00 0.00 76 1018.9
20260507085548 12 0 0.0 0.0 0.00 0.00 0.00 75 1019.0
20260507085045 11 0 0.0 0.0 0.00 0.00 0.00 75 1019.1
20260507084557 12 0 0.0 0.0 0.00 0.00 0.00 76 1019.1
20260507084044 12 0 0.0 0.0 0.00 0.00 0.00 78 1019.2
20260507083544 12 0 0.0 0.0 0.00 0.00 0.00 78 1019.1
20260507083053 12 0 0.0 0.0 0.00 0.00 0.00 79 1019.2
20260507082544 11 0 0.0 0.0 0.00 0.00 0.00 80 1018.9
20260507082047 11 0 0.0 0.0 0.00 0.00 0.00 81 1019.1
20260507081550 11 0 0.0 0.0 0.00 0.00 0.00 81 1019.1
20260507081044 11 0 0.0 0.0 0.00 0.00 0.00 82 1019.2
20260507080543 11 0 0.0 0.0 0.00 0.00 0.00 83 1019.2
20260507080052 11 0 0.0 0.0 0.00 0.00 0.00 83 1019.1
20260507075544 11 0 0.0 0.0 0.00 0.00 0.00 85 1019.1
20260507075044 11 0 0.0 0.0 0.00 0.00 0.00 87 1019.2
20260507074556 10 0 0.0 0.0 0.00 0.00 0.00 88 1018.9
20260507074043 10 0 0.0 0.0 0.00 0.00 0.00 89 1018.9
20260507073545 10 0 0.0 0.0 0.00 0.00 0.00 91 1019.1
20260507073051 10 0 0.0 0.0 0.00 0.00 0.00 92 1019.0
20260507072544 9 0 0.0 0.0 0.00 0.00 0.00 92 1018.8
20260507072045 8 0 0.0 0.0 0.00 0.00 0.00 93 1018.9
20260507071557 8 0 0.0 0.0 0.00 0.00 0.00 94 1018.9
20260507071044 8 0 0.0 0.0 0.00 0.00 0.00 94 1019.0
20260507070544 7 0 0.0 0.0 0.00 0.00 0.00 94 1019.0
20260507065543 7 0 0.0 0.0 0.00 0.00 0.00 94 1019.0
20260507065044 7 0 0.0 0.0 0.00 0.00 0.00 93 1018.9
20260507064600 7 0 0.0 0.0 0.00 0.00 0.00 93 1018.9
20260507064044 6 0 0.0 0.0 0.00 0.00 0.00 93 1018.9
20260507063544 6 0 0.0 0.0 0.00 0.00 0.00 94 1018.9
20260507063051 6 0 0.0 0.0 0.00 0.00 0.00 94 1018.9
20260507062544 6 0 0.0 0.0 0.00 0.00 0.00 93 1018.9
20260507062044 6 0 0.0 0.0 0.00 0.00 0.00 94 1018.9
20260507061552 6 0 0.0 0.0 0.00 0.00 0.00 94 1018.8
20260507061044 6 0 0.0 0.0 0.00 0.00 0.00 94 1018.8
20260507060547 6 0 0.0 0.0 0.00 0.00 0.00 94 1018.9
20260507060105 6 0 0.0 0.0 0.00 0.00 0.00 93 1018.8
20260507055546 6 0 0.0 0.0 0.00 0.00 0.00 93 1018.8
20260507055044 6 0 0.0 0.0 0.00 0.00 0.00 93 1018.7
20260507054559 6 0 0.0 0.0 0.00 0.00 0.00 93 1018.8
20260507054043 6 0 0.0 0.0 0.00 0.00 0.00 93 1018.7
20260507053544 6 0 0.0 0.0 0.00 0.00 0.00 93 1018.6
20260507053057 6 0 0.0 0.0 0.00 0.00 0.00 93 1018.6
20260507052547 6 0 0.0 0.0 0.00 0.00 0.00 93 1018.5
20260507052044 6 0 0.0 0.0 0.00 0.00 0.00 93 1018.6
20260507051556 6 0 0.0 0.0 0.00 0.00 0.00 93 1018.5
20260507051047 6 0 0.0 0.0 0.00 0.00 0.00 93 1018.5
20260507050546 6 0 0.0 0.0 0.00 0.00 0.00 93 1018.5
20260507050054 6 0 0.0 0.0 0.00 0.00 0.00 93 1018.5
20260507045548 5 0 0.0 0.0 0.00 0.00 0.00 93 1018.4
20260507045045 5 0 0.0 0.0 0.00 0.00 0.00 93 1018.4
20260507044555 5 0 0.0 0.0 0.00 0.00 0.00 93 1018.3
20260507044044 5 0 0.0 0.0 0.00 0.00 0.00 93 1018.4
20260507043543 5 0 0.0 0.0 0.00 0.00 0.00 93 1018.3
20260507043059 5 0 0.0 0.0 0.00 0.00 0.00 92 1018.3
20260507042544 5 0 0.0 0.0 0.00 0.00 0.00 93 1018.3
20260507042048 5 0 0.0 0.0 0.00 0.00 0.00 92 1018.3
20260507041554 5 0 0.0 0.0 0.00 0.00 0.00 92 1018.2
20260507041044 5 0 0.0 0.0 0.00 0.00 0.00 92 1018.3
20260507040546 5 0 0.0 0.0 0.00 0.00 0.00 92 1018.3
20260507040052 5 0 0.0 0.0 0.00 0.00 0.00 92 1018.3
20260507035544 5 0 0.0 0.0 0.00 0.00 0.00 92 1018.2
20260507035044 5 0 0.0 0.0 0.00 0.00 0.00 92 1018.2
20260507034559 5 0 0.0 0.0 0.00 0.00 0.00 92 1018.2
20260507034044 5 0 0.0 0.0 0.00 0.00 0.00 92 1018.2
20260507033545 6 0 0.0 0.0 0.00 0.00 0.00 92 1018.2
20260507033053 6 0 0.0 0.0 0.00 0.00 0.00 92 1018.1
20260507032544 6 0 0.0 0.0 0.00 0.00 0.00 93 1018.2
20260507032043 6 0 0.0 0.0 0.00 0.00 0.00 92 1018.2
20260507031552 6 0 0.0 0.0 0.00 0.00 0.00 92 1018.2
20260507031044 6 0 0.0 0.0 0.00 0.00 0.00 93 1018.3
20260507030544 6 0 0.0 0.0 0.00 0.00 0.00 93 1018.4
20260507030051 5 0 0.0 0.0 0.00 0.00 0.00 92 1018.2
20260507025548 5 0 0.0 0.0 0.00 0.00 0.00 92 1018.3
20260507025044 5 0 0.0 0.0 0.00 0.00 0.00 92 1018.2
20260507024558 5 0 0.0 0.0 0.00 0.00 0.00 92 1018.3
20260507024044 5 0 0.0 0.0 0.00 0.00 0.00 92 1018.3
20260507023544 5 0 0.0 0.0 0.00 0.00 0.00 92 1018.3
20260507023051 5 0 0.0 0.0 0.00 0.00 0.00 92 1018.3
20260507022544 5 0 0.0 0.0 0.00 0.00 0.00 92 1018.3
20260507022044 5 0 0.0 0.0 0.00 0.00 0.00 91 1018.4
20260507021557 5 0 0.0 0.0 0.00 0.00 0.00 91 1018.4
20260507021044 5 0 0.0 0.0 0.00 0.00 0.00 91 1018.2
20260507020547 5 0 0.0 0.0 0.00 0.00 0.00 91 1018.3
20260507020054 5 0 0.0 0.0 0.00 0.00 0.00 91 1018.2
20260507015544 5 0 0.0 0.0 0.00 0.00 0.00 91 1018.2
20260507015044 6 0 0.0 0.0 0.00 0.00 0.00 91 1018.2